Time,TemperatureF,DewpointF,PressureIn,WindDirection,WindDirectionDegrees,WindSpeedMPH,WindSpeedGustMPH,Humidity,HourlyPrecipIn,Conditions,Clouds,dailyrainin,SoftwareType,DateUTC
2013-04-23 00:08:00,53.4,52.0,30.19,North,360,10.0,-999.0,95,-99.99,,,0.00,weatherlink.com 1.10,2013-04-23 04:08:00,
2013-04-23 00:23:00,53.4,52.0,30.19,North,355,10.0,-999.0,96,-99.99,,,0.00,weatherlink.com 1.10,2013-04-23 04:23:00,
2013-04-23 00:38:00,53.3,52.0,30.18,North,5,12.0,-999.0,96,-99.99,,,0.00,weatherlink.com 1.10,2013-04-23 04:38:00,
2013-04-23 00:53:00,53.2,52.0,30.18,North,355,11.0,-999.0,96,-99.99,,,0.00,weatherlink.com 1.10,2013-04-23 04:53:00,
2013-04-23 01:08:00,53.2,52.0,30.18,North,355,10.0,-999.0,96,-99.99,,,0.00,weatherlink.com 1.10,2013-04-23 05:08:00,
2013-04-23 01:23:00,53.1,52.0,30.18,NNE,18,13.0,-999.0,96,-99.99,,,0.00,weatherlink.com 1.10,2013-04-23 05:23:00,
2013-04-23 01:39:00,53.0,52.0,30.17,NNE,18,18.0,-999.0,96,-99.99,,,0.00,weatherlink.com 1.10,2013-04-23 05:39:00,
2013-04-23 01:54:00,52.9,52.0,30.17,NNE,17,8.0,-999.0,96,-99.99,,,0.00,weatherlink.com 1.10,2013-04-23 05:54:00,
2013-04-23 02:09:00,52.7,52.0,30.16,North,5,14.0,-999.0,96,-99.99,,,0.00,weatherlink.com 1.10,2013-04-23 06:09:00,
2013-04-23 02:24:00,52.8,52.0,30.15,North,355,14.0,-999.0,96,-99.99,,,0.00,weatherlink.com 1.10,2013-04-23 06:24:00,
2013-04-23 02:39:00,52.7,52.0,30.14,NNE,26,13.0,-999.0,96,-99.99,,,0.00,weatherlink.com 1.10,2013-04-23 06:39:00,
2013-04-23 02:54:00,52.8,52.0,30.14,NW,323,7.0,-999.0,96,-99.99,,,0.00,weatherlink.com 1.10,2013-04-23 06:54:00,
2013-04-23 03:09:00,52.6,52.0,30.14,North,360,9.0,-999.0,96,-99.99,,,0.00,weatherlink.com 1.10,2013-04-23 07:09:00,
2013-04-23 03:24:00,52.4,51.0,30.13,NNE,24,16.0,-999.0,96,-99.99,,,0.00,weatherlink.com 1.10,2013-04-23 07:24:00,
2013-04-23 03:39:00,52.4,51.0,30.14,NNE,31,23.0,-999.0,96,-99.99,,,0.00,weatherlink.com 1.10,2013-04-23 07:39:00,
2013-04-23 03:54:00,52.3,51.0,30.13,North,355,12.0,-999.0,96,-99.99,,,0.00,weatherlink.com 1.10,2013-04-23 07:54:00,
2013-04-23 04:09:00,52.3,51.0,30.13,North,360,16.0,-999.0,96,-99.99,,,0.00,weatherlink.com 1.10,2013-04-23 08:09:00,
2013-04-23 04:24:00,52.2,51.0,30.14,North,355,12.0,-999.0,96,-99.99,,,0.00,weatherlink.com 1.10,2013-04-23 08:24:00,
2013-04-23 04:39:00,52.2,51.0,30.13,NNW,348,13.0,-999.0,96,-99.99,,,0.00,weatherlink.com 1.10,2013-04-23 08:39:00,
2013-04-23 04:54:00,52.1,51.0,30.13,North,11,13.0,-999.0,97,-99.99,,,0.00,weatherlink.com 1.10,2013-04-23 08:54:00,
2013-04-23 05:09:00,52.1,51.0,30.13,NNE,26,14.0,-999.0,97,-99.99,,,0.00,weatherlink.com 1.10,2013-04-23 09:09:00,
2013-04-23 05:24:00,52.1,51.0,30.13,NNE,31,21.0,-999.0,97,-99.99,,,0.00,weatherlink.com 1.10,2013-04-23 09:24:00,
2013-04-23 05:39:00,52.2,51.0,30.13,NNE,17,14.0,-999.0,96,-99.99,,,0.00,weatherlink.com 1.10,2013-04-23 09:39:00,
2013-04-23 05:54:00,52.3,51.0,30.14,NNW,344,9.0,-999.0,96,-99.99,,,0.00,weatherlink.com 1.10,2013-04-23 09:54:00,
2013-04-23 06:09:00,52.4,52.0,30.14,NNE,18,14.0,-999.0,97,-99.99,,,0.00,weatherlink.com 1.10,2013-04-23 10:09:00,
2013-04-23 06:24:00,52.5,51.0,30.14,NNE,13,9.0,-999.0,96,-99.99,,,0.00,weatherlink.com 1.10,2013-04-23 10:24:00,
2013-04-23 06:39:00,52.6,52.0,30.15,NNE,15,16.0,-999.0,96,-99.99,,,0.00,weatherlink.com 1.10,2013-04-23 10:39:00,
2013-04-23 06:54:00,52.6,52.0,30.15,NNE,16,9.0,-999.0,96,-99.99,,,0.00,weatherlink.com 1.10,2013-04-23 10:54:00,
2013-04-23 07:09:00,52.8,52.0,30.16,NNE,20,8.0,-999.0,96,-99.99,,,0.00,weatherlink.com 1.10,2013-04-23 11:09:00,
2013-04-23 07:24:00,52.8,52.0,30.16,North,5,7.0,-999.0,96,-99.99,,,0.00,weatherlink.com 1.10,2013-04-23 11:24:00,
2013-04-23 07:39:00,52.9,52.0,30.17,North,5,9.0,-999.0,96,-99.99,,,0.00,weatherlink.com 1.10,2013-04-23 11:39:00,
2013-04-23 07:54:00,53.0,52.0,30.17,North,355,15.0,-999.0,96,-99.99,,,0.00,weatherlink.com 1.10,2013-04-23 11:54:00,
2013-04-23 08:09:00,53.2,52.0,30.18,North,360,11.0,-999.0,96,-99.99,,,0.00,weatherlink.com 1.10,2013-04-23 12:09:00,
2013-04-23 08:24:00,53.3,52.0,30.18,NNW,347,10.0,-999.0,96,-99.99,,,0.00,weatherlink.com 1.10,2013-04-23 12:24:00,
2013-04-23 08:39:00,53.4,52.0,30.18,NE,36,13.0,-999.0,96,-99.99,,,0.00,weatherlink.com 1.10,2013-04-23 12:39:00,
2013-04-23 08:54:00,53.7,52.0,30.18,NNW,331,10.0,-999.0,95,-99.99,,,0.00,weatherlink.com 1.10,2013-04-23 12:54:00,
2013-04-23 09:09:00,54.0,53.0,30.18,NNE,16,17.0,-999.0,95,-99.99,,,0.00,weatherlink.com 1.10,2013-04-23 13:09:00,
2013-04-23 09:24:00,54.3,53.0,30.18,NNE,25,9.0,-999.0,95,-99.99,,,0.00,weatherlink.com 1.10,2013-04-23 13:24:00,
2013-04-23 09:39:00,54.5,53.0,30.19,North,360,14.0,-999.0,94,-99.99,,,0.00,weatherlink.com 1.10,2013-04-23 13:39:00,
2013-04-23 09:54:00,54.8,53.0,30.19,North,360,15.0,-999.0,93,-99.99,,,0.00,weatherlink.com 1.10,2013-04-23 13:54:00,
2013-04-23 10:09:00,55.1,53.0,30.20,NNE,15,13.0,-999.0,93,-99.99,,,0.00,weatherlink.com 1.10,2013-04-23 14:09:00,
2013-04-23 10:24:00,55.1,53.0,30.20,NNE,19,11.0,-999.0,93,-99.99,,,0.00,weatherlink.com 1.10,2013-04-23 14:24:00,
2013-04-23 10:39:00,55.3,53.0,30.21,NNW,345,6.0,-999.0,92,-99.99,,,0.00,weatherlink.com 1.10,2013-04-23 14:39:00,
2013-04-23 10:54:00,55.7,54.0,30.20,NNE,32,12.0,-999.0,92,-99.99,,,0.00,weatherlink.com 1.10,2013-04-23 14:54:00,
2013-04-23 11:09:00,56.4,54.0,30.20,NNW,344,13.0,-999.0,90,-99.99,,,0.00,weatherlink.com 1.10,2013-04-23 15:09:00,
2013-04-23 11:24:00,57.5,54.0,30.20,North,351,8.0,-999.0,89,-99.99,,,0.00,weatherlink.com 1.10,2013-04-23 15:24:00,
2013-04-23 11:40:00,59.3,55.0,30.20,NNW,340,6.0,-999.0,85,-99.99,,,0.00,weatherlink.com 1.10,2013-04-23 15:40:00,
2013-04-23 11:55:00,59.1,54.0,30.20,NE,43,11.0,-999.0,84,-99.99,,,0.00,weatherlink.com 1.10,2013-04-23 15:55:00,
2013-04-23 12:10:00,60.8,55.0,30.20,NNE,20,6.0,-999.0,81,-99.99,,,0.00,weatherlink.com 1.10,2013-04-23 16:10:00,
2013-04-23 12:25:00,61.7,55.0,30.20,NNE,18,11.0,-999.0,78,-99.99,,,0.00,weatherlink.com 1.10,2013-04-23 16:25:00,
2013-04-23 12:40:00,61.7,55.0,30.20,ENE,58,8.0,-999.0,78,-99.99,,,0.00,weatherlink.com 1.10,2013-04-23 16:40:00,
2013-04-23 12:55:00,62.5,55.0,30.19,North,9,14.0,-999.0,75,-99.99,,,0.00,weatherlink.com 1.10,2013-04-23 16:55:00,
2013-04-23 13:10:00,61.4,54.0,30.20,NNE,23,9.0,-999.0,76,-99.99,,,0.00,weatherlink.com 1.10,2013-04-23 17:10:00,
2013-04-23 13:25:00,62.0,54.0,30.19,NNE,28,6.0,-999.0,75,-99.99,,,0.00,weatherlink.com 1.10,2013-04-23 17:25:00,
2013-04-23 13:40:00,63.0,54.0,30.19,North,360,7.0,-999.0,73,-99.99,,,0.00,weatherlink.com 1.10,2013-04-23 17:40:00,
2013-04-23 13:55:00,63.5,54.0,30.18,NE,51,12.0,-999.0,72,-99.99,,,0.00,weatherlink.com 1.10,2013-04-23 17:55:00,
2013-04-23 14:10:00,64.3,55.0,30.19,ENE,69,8.0,-999.0,72,-99.99,,,0.00,weatherlink.com 1.10,2013-04-23 18:10:00,
2013-04-23 14:25:00,64.8,55.0,30.19,NNW,341,7.0,-999.0,70,-99.99,,,0.00,weatherlink.com 1.10,2013-04-23 18:25:00,
2013-04-23 14:40:00,64.8,55.0,30.20,North,360,12.0,-999.0,71,-99.99,,,0.00,weatherlink.com 1.10,2013-04-23 18:40:00,
2013-04-23 14:55:00,64.8,54.0,30.19,NNW,348,7.0,-999.0,68,-99.99,,,0.00,weatherlink.com 1.10,2013-04-23 18:55:00,
2013-04-23 15:10:00,64.6,54.0,30.18,North,355,8.0,-999.0,69,-99.99,,,0.00,weatherlink.com 1.10,2013-04-23 19:10:00,
2013-04-23 15:25:00,64.9,54.0,30.18,NE,49,7.0,-999.0,69,-99.99,,,0.00,weatherlink.com 1.10,2013-04-23 19:25:00,
2013-04-23 15:40:00,65.5,54.0,30.17,NE,47,8.0,-999.0,67,-99.99,,,0.00,weatherlink.com 1.10,2013-04-23 19:40:00,
2013-04-23 15:55:00,65.7,54.0,30.17,NE,40,12.0,-999.0,67,-99.99,,,0.00,weatherlink.com 1.10,2013-04-23 19:55:00,
2013-04-23 16:10:00,65.7,54.0,30.16,NE,46,10.0,-999.0,67,-99.99,,,0.00,weatherlink.com 1.10,2013-04-23 20:10:00,
2013-04-23 16:25:00,65.7,54.0,30.17,North,9,14.0,-999.0,67,-99.99,,,0.00,weatherlink.com 1.10,2013-04-23 20:25:00,
2013-04-23 16:40:00,65.8,54.0,30.17,NE,40,12.0,-999.0,66,-99.99,,,0.00,weatherlink.com 1.10,2013-04-23 20:40:00,
2013-04-23 16:55:00,65.6,54.0,30.16,NNE,19,4.0,-999.0,67,-99.99,,,0.00,weatherlink.com 1.10,2013-04-23 20:55:00,
2013-04-23 17:10:00,65.1,54.0,30.16,NE,49,4.0,-999.0,67,-99.99,,,0.00,weatherlink.com 1.10,2013-04-23 21:10:00,
2013-04-23 17:25:00,64.9,54.0,30.16,ENE,66,2.0,-999.0,67,-99.99,,,0.00,weatherlink.com 1.10,2013-04-23 21:25:00,
2013-04-23 17:40:00,65.1,53.0,30.16,NNE,12,5.0,-999.0,66,-99.99,,,0.00,weatherlink.com 1.10,2013-04-23 21:40:00,
2013-04-23 17:55:00,65.0,53.0,30.16,North,350,5.0,-999.0,66,-99.99,,,0.00,weatherlink.com 1.10,2013-04-23 21:55:00,
2013-04-23 18:10:00,65.1,53.0,30.16,NE,40,4.0,-999.0,66,-99.99,,,0.00,weatherlink.com 1.10,2013-04-23 22:10:00,
2013-04-23 18:25:00,65.0,54.0,30.17,NNE,32,4.0,-999.0,67,-99.99,,,0.00,weatherlink.com 1.10,2013-04-23 22:25:00,
2013-04-23 18:40:00,64.5,54.0,30.17,NE,36,6.0,-999.0,68,-99.99,,,0.00,weatherlink.com 1.10,2013-04-23 22:40:00,
2013-04-23 18:55:00,63.7,53.0,30.17,North,11,1.0,-999.0,69,-99.99,,,0.00,weatherlink.com 1.10,2013-04-23 22:55:00,
2013-04-23 19:10:00,63.2,53.0,30.17,NE,36,2.0,-999.0,69,-99.99,,,0.00,weatherlink.com 1.10,2013-04-23 23:10:00,
2013-04-23 19:25:00,62.5,53.0,30.17,NE,45,6.0,-999.0,71,-99.99,,,0.00,weatherlink.com 1.10,2013-04-23 23:25:00,
2013-04-23 19:40:00,61.8,53.0,30.18,ENE,63,4.0,-999.0,72,-99.99,,,0.00,weatherlink.com 1.10,2013-04-23 23:40:00,
2013-04-23 19:55:00,61.1,53.0,30.18,East,84,3.0,-999.0,74,-99.99,,,0.00,weatherlink.com 1.10,2013-04-23 23:55:00,
2013-04-23 20:10:00,60.4,53.0,30.18,ENE,73,5.0,-999.0,76,-99.99,,,0.00,weatherlink.com 1.10,2013-04-24 00:10:00,
2013-04-23 20:25:00,59.9,53.0,30.19,ENE,74,6.0,-999.0,77,-99.99,,,0.00,weatherlink.com 1.10,2013-04-24 00:25:00,
2013-04-23 20:40:00,59.4,53.0,30.20,ENE,78,5.0,-999.0,78,-99.99,,,0.00,weatherlink.com 1.10,2013-04-24 00:40:00,
2013-04-23 20:55:00,58.6,52.0,30.20,ESE,103,5.0,-999.0,79,-99.99,,,0.00,weatherlink.com 1.10,2013-04-24 00:55:00,
2013-04-23 21:10:00,57.9,52.0,30.20,East,82,4.0,-999.0,80,-99.99,,,0.00,weatherlink.com 1.10,2013-04-24 01:10:00,
2013-04-23 21:25:00,57.4,52.0,30.21,ENE,73,5.0,-999.0,81,-99.99,,,0.00,weatherlink.com 1.10,2013-04-24 01:25:00,
2013-04-23 21:40:00,57.0,52.0,30.21,East,90,7.0,-999.0,82,-99.99,,,0.00,weatherlink.com 1.10,2013-04-24 01:40:00,
2013-04-23 21:55:00,56.6,52.0,30.21,East,90,6.0,-999.0,83,-99.99,,,0.00,weatherlink.com 1.10,2013-04-24 01:55:00,
2013-04-23 22:10:00,56.4,51.0,30.22,East,92,7.0,-999.0,83,-99.99,,,0.00,weatherlink.com 1.10,2013-04-24 02:10:00,
2013-04-23 22:40:00,56.1,52.0,30.22,East,79,6.0,-999.0,85,-99.99,,,0.00,weatherlink.com 1.10,2013-04-24 02:40:00,
2013-04-23 22:55:00,56.0,52.0,30.21,East,87,4.0,-999.0,85,-99.99,,,0.00,weatherlink.com 1.10,2013-04-24 02:55:00,
2013-04-23 23:10:00,56.0,52.0,30.21,East,89,7.0,-999.0,86,-99.99,,,0.00,weatherlink.com 1.10,2013-04-24 03:10:00,
2013-04-23 23:25:00,56.3,52.0,30.21,ESE,108,6.0,-999.0,86,-99.99,,,0.00,weatherlink.com 1.10,2013-04-24 03:25:00,
2013-04-23 23:40:00,56.2,52.0,30.21,East,84,6.0,-999.0,86,-99.99,,,0.00,weatherlink.com 1.10,2013-04-24 03:40:00,
2013-04-23 23:55:00,56.2,52.0,30.21,East,97,8.0,-999.0,86,-99.99,,,0.00,weatherlink.com 1.10,2013-04-24 03:55:00,